Flag for U.S.A. Weather past 2 weeks in Vevay, Indiana, U.S.A.

Now
67 °F

Passing clouds.


Feels Like: 67 °F
Forecast: 70 / 92 °F
Wind: No wind

Location: Cincinnati / Northern Kentucky International Airport

Current Time: Sep 5, 2015 at 2:28:42 AM

Latest Report: Sep 5, 2015 at 1:52 AM


Visibility: 10 mi

Pressure: 30.05 "Hg

Humidity: 90%

Dew point: 64 °F

Location of VevayLocation

Historic Weather in Vevay — Graph

°F

Vevay temperature yesterday

Maximum temperature yesterday: 92 °F (at 2:52 PM)
Minimum temperature yesterday: 67 °F (at 5:52 AM)
Average temperature yesterday: 78 °F

Past Weeks' High & Low Weather Summary

 TemperatureHumidityPressure
High92 °F (Sep 4, 2:52 PM)97% (Aug 21, 1:52 AM)30.19 "Hg (Aug 21, 1:52 AM)
Low54 °F (Aug 25, 6:52 AM)35% (Aug 25, 1:52 PM)29.86 "Hg (Aug 23, 7:52 PM)
Average72 °F69%30.06 "Hg
* Reported Aug 21 12:52 AM — Sep 5 12:52 AM, Vevay, Weather by CustomWeather, © 2015

Note: Actual official high and low records may vary slightly from our data, if they occured in-between our weather recording intervals... More about our weather records

Advertising

Vevay weather history for previous 24 hours

 ConditionsComfort  
Time TempWeatherWind HumidityBarometerVisibility
12:52 AM
Sat, Sep 5
67 °FPassing clouds.No wind90%30.05 "Hg10 mi
11:52 PM
Fri, Sep 4
71 °FOvercast.7 mph78%30.06 "Hg10 mi
10:52 PM71 °FLight rain. Overcast.8 mph81%30.07 "Hg10 mi
9:52 PM70 °FLight rain. Mostly cloudy.6 mph84%30.08 "Hg10 mi
8:52 PM71 °FThunderstorms. Mostly cloudy.9 mph87%30.10 "Hg10 mi
7:52 PM74 °FThunderstorms. Mostly cloudy.12 mph82%30.05 "Hg6 mi
7:01 PM82 °FThunderstorms. Partly sunny.29 mph51%30.05 "Hg8 mi
5:52 PM91 °FBroken clouds.5 mph44%29.98 "Hg10 mi
4:52 PM92 °FScattered clouds.6 mph44%29.97 "Hg9 mi
3:52 PM91 °FScattered clouds.6 mph44%29.99 "Hg10 mi
2:52 PM92 °FScattered clouds.5 mph44%30.00 "Hg10 mi
1:52 PM91 °FScattered clouds.7 mph44%30.02 "Hg10 mi
12:52 PM88 °FScattered clouds.3 mph48%30.03 "Hg10 mi
11:52 AM88 °FScattered clouds.7 mph48%30.03 "Hg10 mi
10:52 AM85 °FScattered clouds.7 mph55%30.03 "Hg10 mi
9:52 AM81 °FPassing clouds.5 mph65%30.02 "Hg8 mi
8:52 AM74 °FScattered clouds.No wind88%30.02 "Hg7 mi
7:52 AM68 °FFog.No wind96%30.01 "Hg6 mi
6:52 AM67 °FFog.No wind97%29.99 "Hg4 mi
5:52 AM67 °FFog.3 mph93%29.98 "Hg4 mi
4:52 AM69 °FFog.No wind90%29.97 "Hg6 mi
3:52 AM70 °FClear.No wind87%29.96 "Hg7 mi
2:52 AM69 °FFog.No wind93%29.95 "Hg6 mi
Weather by CustomWeather, © 2015

See weather overviewHow to use our weather pages